sat.trackr.live / text

‹ back to catalog

STARLINK-5838

NORAD 57073 · 2023-088AB

PAYLOAD ACTIVE UNKNOWN

§ Identity

Operator
Country
US
Launch date
2023-06-22
Launch site
AFWTR
Launch vehicle
Mass (kg)
RCS (m²)

Purposes: comms

External: N2YO · Heavens-Above · Gunter

§ Orbital elements

Epoch: 2026-09-20T21:34:53.325120Z

Period
94.27 min
Inclination
43.0032°
Eccentricity
0.0001318
Mean motion
15.27576224 rev/d
Perigee alt
482.2 km
Apogee alt
484.0 km
Semi-major
6,861.2 km
B*
2.4241e-6
RAAN
73.8109°
Arg perigee
255.7579°
Mean anomaly
104.3126°
Rev number
17,937

§ Raw data

STARLINK-58381 57073U 23088AB  26263.89922830 -.00000195  00000+0  24241-5 0  99962 57073  43.0032  73.8109 0001318 255.7579 104.3126 15.27576224179372

JSON: /api/v1/satellites/57073 · /tle

For live sub-satellite position, see the globe view (requires WebGL).

§ Visibility from observer

Set your observer location to see the next 7 days of passes ≥ 10°. The values pass through the URL so the page stays shareable.

No JS? Fill the form by hand. The geolocation button needs JavaScript.